Regional Weather Roundup
Issued by NWS

Home | Current Version | Previous Version | Text Only | Print | Product List | Glossary On
Versions: 1 2 3 4 5 6 7 8 9 10 11 12 13 14 15 16 17 18 19 20 21 22 23 24 25 26 27 28 29 30 31 32 33 34 35 36 37 38 39 40 41 42 43 44 45 46 47 48 49 50
000
ASUS43 KMKX 202100
RWRWI

WISCONSIN REGIONAL WEATHER ROUNDUP
NATIONAL WEATHER SERVICE MILWAUKEE/SULLIVAN WI
300 PM CST MON NOV 20 2017

NOTE: "FAIR" INDICATES FEW OR NO CLOUDS BELOW 12,000 FEET WITH NO
SIGNIFICANT WEATHER AND/OR OBSTRUCTIONS TO VISIBILITY.

WIZ001-002-006>008-014>016-023>028-202200-
NORTHWEST WISCONSIN

CITY           SKY/WX    TMP DP  RH WIND       PRES   REMARKS
SUPERIOR ARPT  CLOUDY    36  30  80 CALM      29.38F
ASHLAND        CLOUDY    35  28  75 CALM      29.39F
HAYWARD        CLOUDY    42  27  55 S13       29.41S
SIREN          CLOUDY    42  28  58 SW6       29.43R
CUMBERLAND     CLOUDY    39  28  65 S10       29.43F WCI  32
RICE LAKE      CLOUDY    43  29  58 S9        29.46F
CHETEK         CLOUDY    44  30  57 S9        29.45F
LADYSMITH      CLOUDY    42  30  62 S7        29.46F
EAU CLAIRE     NOT AVBL
MENOMONIE      MOSUNNY   47  30  52 S12       29.46F
NEW RICHMOND   CLOUDY    43  29  56 S10G16    29.45F
OSCEOLA        MOSUNNY   43  30  59 S9        29.47S
$$

WIZ003>005-009-010-017-018-202200-
NORTH CENTRAL WISCONSIN

CITY           SKY/WX    TMP DP  RH WIND       PRES   REMARKS
MANITOWISH WTR CLOUDY    37  31  76 S9        29.41F WCI  31
ARBOR VITAE    CLOUDY    42  30  64 S8        29.44F
WOODRUFF       CLOUDY    42  30  64 S8        29.44F
RHINELANDER    CLOUDY    43  28  55 S9        29.47F
EAGLE RIVER    CLOUDY    41  28  57 S5        29.44F
LAND O LAKES   CLOUDY    39  32  75 S3        29.46F
PHILLIPS       CLOUDY    43  29  58 S12       29.43S
TOMAHAWK       CLOUDY    40  28  61 S5        29.48F
MEDFORD        CLOUDY    42  30  62 S7        29.47F
MERRILL        CLOUDY    44  29  57 S5        29.49F
$$

WIZ029-030-035-036-043>047-202200-
CENTRAL WISCONSIN

CITY           SKY/WX    TMP DP  RH WIND       PRES   REMARKS
WAUSAU         CLOUDY    44  28  53 S12       29.49F
MOSINEE        CLOUDY    45  30  57 S9        29.52F
MARSHFIELD     CLOUDY    46  29  51 S12       29.48F
STEVENS POINT  CLOUDY    46  28  50 S10G18    29.53F
WAUPACA        CLOUDY    50  30  46 S12       29.55F
WAUTOMA        CLOUDY    49  30  48 S14G22    29.56F
WISC RAPIDS    CLOUDY    49  30  48 SW10      29.54F
CAMP DOUGLAS   NOT AVBL
$$

WIZ011>013-019>022-031-037>040-048>050-202200-
NORTHEAST WISCONSIN

CITY           SKY/WX    TMP DP  RH WIND       PRES   REMARKS
ANTIGO         MOSUNNY   39  28  66 SE12      29.51F WCI  31
SHAWANO        CLOUDY    45  31  56 S5        29.54F
OCONTO         CLOUDY    42  29  60 S8        29.57F
STURGEON BAY   MOSUNNY   41  32  70 S17       29.58F
GREEN BAY      CLOUDY    45  34  65 S10       29.57F
MANITOWOC      CLOUDY    45  34  65 S13       29.61F
APPLETON       MOSUNNY   46  27  46 S17G23    29.55F
CLINTONVILLE   CLOUDY    45  30  57 S12G17    29.55F
OSHKOSH        CLOUDY    47  32  56 S16G26    29.58F
$$

WIZ032>034-041-042-053>061-202200-
SOUTHWEST WISCONSIN

CITY           SKY/WX    TMP DP  RH WIND       PRES   REMARKS
LA CROSSE      CLOUDY    53  32  44 S15       29.52F
SPARTA         CLOUDY    51  32  48 S8        29.54F
VIROQUA        CLOUDY    49  32  51 S13G20    29.55F
BOSCOBEL       CLOUDY    54  31  41 SW9       29.58F
PRAIRIE DU CHI CLOUDY    55  29  37 S9        29.58F
PLATTEVILLE    SUNNY     54  35  48 S17       29.62F
$$

WIZ056-057-062-063-064-067-068-202200-
SOUTH CENTRAL WISCONSIN

CITY           SKY/WX    TMP DP  RH WIND       PRES   REMARKS
REEDSBURG      CLOUDY    50  31  49 S22G29    29.57F
BARABOO/DELLS  CLOUDY    50  29  44 S17G26    29.57F
LONE ROCK      NOT AVBL
MINERAL POINT  CLOUDY    54  34  47 S16       29.61F
MADISON        CLOUDY    50  31  48 S16G28    29.61F
MIDDLETON      CLOUDY    52  31  45 SW13      29.62F
WATERTOWN      CLOUDY    49  32  51 S14G22    29.64F
MONROE         CLOUDY    50  32  50 S22G28    29.64F
JANESVILLE     SUNNY     54  32  43 S14G20    29.66F
$$

WIZ051-052-058>065-066-070>072-202200-
SOUTHEAST WISCONSIN

CITY           SKY/WX    TMP DP  RH WIND       PRES   REMARKS
MILWAUKEE      PTSUNNY   52  32  46 SW22G29   29.67F
WAUKESHA       NOT AVBL
MILWAUKEE/TIMM SUNNY     48  28  46 SW16G25   29.66F
RACINE         CLOUDY    51  33  50 SW18G33   29.69F
BURLINGTON     SUNNY     53  38  56 S23G29    29.69F
KENOSHA        SUNNY     52  31  44 SW17G32   29.69F
FOND DU LAC    CLOUDY    47  30  51 S13       29.59F
SHEBOYGAN      CLOUDY    48  35  60 S9        29.61F
WEST BEND      CLOUDY    48  30  49 S14G20    29.63F
JUNEAU         CLOUDY    47  32  56 S16G22    29.64F
$$

LSZ147-162-202200-
LAKE SUPERIOR

STATION/POSITION TIME  TEMP    WIND        PRES    WAVE
                       AIR SEA DIR/SP/G            HT/PER
                 (UTC) (F)     (DEG/KT/KT) (MB)    (FT/S)
DEVILS ISLAND    2000   35     100/  3/  4  996.4F
SAXON HARBOR     2040   45     240/  4/  7  994.6F
$$

LMZ867-665-643>646-202200-
LAKE MICHIGAN

STATION/POSITION TIME  TEMP    WIND        PRES    WAVE
                       AIR SEA DIR/SP/G            HT/PER
                 (UTC) (F)     (DEG/KT/KT) (MB)    (FT/S)
N MID LAKE BUOY  1950   43 48  190/ 21/ 25 1004.3F   4/ 5
NORTHPORT PIER   2040   42     150/  7/ 17 1002.0F
KEWAUNEE LAKESHO 2030   41     170/ 20/ 24 1002.2F
SHEBOYGAN LAKESH 2000   43     180/ 19/ 20 1004.1F
PORT WASHINGTON  2040   47     190/  9/ 13 1004.7F
ATWATER BUOY     1939   47 42  200/ 10/ 12 1006.5F
MILWAUKEE LAKESH 2050   50     210/ 17/ 20   N/A
S MID LAKE BUOY  1950   47 49  200/ 23/ 27 1007.8F   5/ 6
KENOSHA   LAKESH 2000   51     210/ 16/ 24 1006.4
$$

TC  - TEMPERATURE IN CELSIUS
VSB - VISIBILITY IN STATUTE MILES
WCI - WIND CHILL INDEX
HX  - HEAT INDEX





USA.gov is the U.S. government's official web portal to all federal, state and local government web resources and services.